WB5OMR-9 Weather Reports


Display with metric or nautical units.
time (UTC)temp
F
wind
direction
speed
MPH
gust
MPH
rain 1hr
in
rain 24hr
in
rain mn
in
humidity
%
barometer
mb
20260504225017 82 0.0 0.0 0.00 0.00 0.00 61 1009.5
20260504224016 83 0.0 0.0 0.00 0.00 0.00 60 1010.2
20260504223015 83 0.0 0.0 0.00 0.00 0.00 60 1010.2
20260504222014 83 0.0 0.0 0.00 0.00 0.00 59 1010.2
20260504221013 83 0.0 0.0 0.00 0.00 0.00 60 1010.2
20260504220011 84 0.0 0.0 0.00 0.00 0.00 59 1010.2
20260504215010 83 0.0 0.0 0.00 0.00 0.00 59 1010.2
20260504214009 83 0.0 0.0 0.00 0.00 0.00 59 1010.5
20260504213007 84 0.0 0.0 0.00 0.00 0.00 60 1010.5
20260504212006 84 0.0 0.0 0.00 0.00 0.00 59 1010.5
20260504211005 83 0.0 0.0 0.00 0.00 0.00 62 1010.8
20260504210004 82 0.0 0.0 0.00 0.00 0.00 61 1010.8
20260504205004 81 0.0 0.0 0.00 0.00 0.00 63 1011.5
20260504204002 81 0.0 0.0 0.00 0.00 0.00 64 1011.5
20260504203001 80 0.0 0.0 0.00 0.00 0.00 64 1011.9
20260504201918 80 0.0 0.0 0.00 0.00 0.00 64 1011.9
20260504200917 80 0.0 0.0 0.00 0.00 0.00 64 1011.9
20260504195834 80 0.0 0.0 0.00 0.00 0.00 64 1012.2
20260504194751 80 0.0 0.0 0.00 0.00 0.00 64 1012.2
20260504193750 80 0.0 0.0 0.00 0.00 0.00 65 1012.5
20260504192749 80 0.0 0.0 0.00 0.00 0.00 65 1012.5
20260504191747 80 0.0 0.0 0.00 0.00 0.00 64 1012.5
20260504190746 79 0.0 0.0 0.00 0.00 0.00 65 1012.5
20260504185703 80 0.0 0.0 0.00 0.00 0.00 65 1012.9
20260504184702 80 0.0 0.0 0.00 0.00 0.00 64 1012.5
20260504183701 79 0.0 0.0 0.00 0.00 0.00 65 1012.9
20260504182700 79 0.0 0.0 0.00 0.00 0.00 66 1013.2
20260504181659 79 0.0 0.0 0.00 0.00 0.00 65 1013.2
20260504180658 79 0.0 0.0 0.00 0.00 0.00 65 1013.2
20260504175615 79 0.0 0.0 0.00 0.00 0.00 66 1013.2
20260504174532 79 0.0 0.0 0.00 0.00 0.00 67 1013.2
20260504173449 78 0.0 0.0 0.00 0.00 0.00 69 1013.5
20260504172448 77 0.0 0.0 0.00 0.00 0.00 70 1013.9
20260504171446 77 0.0 0.0 0.00 0.00 0.00 70 1013.9
20260504170445 76 0.0 0.0 0.00 0.00 0.00 71 1013.9
20260504160233 73 0.0 0.0 0.00 0.00 0.00 75 1014.2
20260504150226 71 0.0 0.0 0.00 0.00 0.00 78 1014.6
20260504141057 67 0.0 0.0 0.00 0.00 0.00 81 1014.2
20260504081402 63 0.0 0.0 0.00 0.00 0.00 78 1014.9
20260504080401 64 0.0 0.0 0.00 0.00 0.00 77 1015.6
20260504070231 66 0.0 0.0 0.00 0.00 0.00 74 1015.9
20260504060142 66 0.0 0.0 0.00 0.00 0.00 72 1016.6
20260504050010 67 0.0 0.0 0.00 0.00 0.00 68 1016.9
20260504045008 67 0.0 0.0 0.00 0.00 0.00 68 1016.9
20260504044007 68 0.0 0.0 0.00 0.00 0.00 67 1016.9
20260504042924 68 0.0 0.0 0.00 0.00 0.00 67 1016.9
20260504041840 68 0.0 0.0 0.00 0.00 0.00 66 1016.9
20260504040757 68 0.0 0.0 0.00 0.00 0.00 66 1016.9
20260504035756 68 0.0 0.0 0.00 0.00 0.00 65 1016.9
20260504034754 68 0.0 0.0 0.00 0.00 0.00 65 1016.6
20260504033753 68 0.0 0.0 0.00 0.00 0.00 65 1016.9
20260504032752 68 0.0 0.0 0.00 0.00 0.00 64 1016.9
20260504031750 69 0.0 0.0 0.00 0.00 0.00 64 1016.9
20260504030749 69 0.0 0.0 0.00 0.00 0.00 63 1016.9
20260504025748 69 0.0 0.0 0.00 0.00 0.00 63 1016.6
20260504024747 69 0.0 0.0 0.00 0.00 0.00 63 1016.6
20260504023704 69 0.0 0.0 0.00 0.00 0.00 64 1016.6
20260504022702 70 0.0 0.0 0.00 0.00 0.00 62 1016.6
20260504021701 70 0.0 0.0 0.00 0.00 0.00 60 1016.6
20260504020700 71 0.0 0.0 0.00 0.00 0.00 59 1016.6
20260504015659 72 0.0 0.0 0.00 0.00 0.00 58 1016.6
20260504014657 73 0.0 0.0 0.00 0.00 0.00 55 1016.6
20260504013655 73 0.0 0.0 0.00 0.00 0.00 53 1016.6
20260504012653 74 0.0 0.0 0.00 0.00 0.00 52 1016.6
20260504011652 74 0.0 0.0 0.00 0.00 0.00 50 1016.3
20260504010651 75 0.0 0.0 0.00 0.00 0.00 49 1016.3
20260504005650 76 0.0 0.0 0.00 0.00 0.00 48 1016.6
20260504004649 77 0.0 0.0 0.00 0.00 0.00 47 1016.6
20260504003648 77 0.0 0.0 0.00 0.00 0.00 46 1016.6
20260504002647 77 0.0 0.0 0.00 0.00 0.00 45 1016.6
20260504001646 78 0.0 0.0 0.00 0.00 0.00 44 1016.6
20260504000645 79 0.0 0.0 0.00 0.00 0.00 43 1016.6
20260503235643 79 0.0 0.0 0.00 0.00 0.00 42 1016.6
20260503234600 80 0.0 0.0 0.00 0.00 0.00 41 1016.6
20260503233559 81 0.0 0.0 0.00 0.00 0.00 40 1016.6
20260503232558 82 0.0 0.0 0.00 0.00 0.00 40 1016.9
20260503231556 82 0.0 0.0 0.00 0.00 0.00 40 1016.9
20260503230555 82 0.0 0.0 0.00 0.00 0.00 39 1017.3